Starlink 31900

operational
NORAD ID: 59942 Int'l Des: 2024-106 Owner: SPXS Country: US Constellation: starlink
LEOCIRCULAR

关于 Starlink 31900

正在加载描述...

实时位置

正在加载3D地球...

即将过境

高度历史

Altitude vs Time

uPlot chart will show altitude changes over time

两行轨道根数

1 59942U 24106W 26033.67853906 .00002645 00000-0 11084-3 0 9994
2 59942 42.9984 169.7875 0001150 277.2084 82.8637 15.25929067 95179
Epoch: Feb 2, 2026 • Age: 21 hours

当前状态

高度 495.8 km
速度 7.62 km/s
星下点 -30.53°S, 44.47°E
发射日期 Jun 1, 2024
运行时间 1.6 years
类型 internet

技术详情

分类 Payload
质量 730.00 kg
干质量 700.00 kg
总质量 730.00 kg
长度 0.30 m
直径 4.10 m
跨度 29.00 m
形状 Box + pan
制造商 SPXS
平台类型 Starlink V2M
阶段状态 In Orbit
所有者/国家 SPXS/US

大型星座

Loading constellations...